VK4NB-13 Weather Reports


time (UTC)temp
C
wind
direction
speed
KPH
gust
KPH
rain 1hr
cm
rain 24hr
cm
rain mn
cm
humidity
%
barometer
mb
20260503022003 26 0 0.0 0.0 0.00 0.99 0.03 82 1016.1
20260503021503 26 0 0.0 0.0 0.00 0.99 0.03 83 1016.2
20260503021000 26 0 0.0 0.0 0.00 0.99 0.03 82 1016.3
20260503020500 26 0 0.0 0.0 0.00 0.99 0.03 83 1016.4
20260503020000 26 90 0.0 3.2 0.00 0.99 0.03 81 1016.6
20260503015500 26 98 0.0 3.2 0.00 0.99 0.03 83 1016.6
20260503015000 25 112 0.0 3.2 0.00 0.99 0.03 84 1016.6
20260503014501 25 109 0.0 3.2 0.00 0.99 0.03 84 1016.7
20260503014022 25 0 0.0 0.0 0.00 0.99 0.03 84 1016.9
20260503013501 25 90 0.0 3.2 0.00 0.99 0.03 84 1017.1
20260503013001 25 90 0.0 3.2 0.00 0.99 0.03 84 1017.0
20260503012522 25 90 0.0 3.2 0.00 0.99 0.03 85 1017.1
20260503012000 25 123 0.0 3.2 0.00 0.99 0.03 85 1017.0
20260503011501 25 157 0.0 3.2 0.00 0.99 0.03 87 1017.2
20260503011001 24 0 0.0 0.0 0.00 0.99 0.03 89 1017.3
20260503010521 24 135 0.0 3.2 0.00 0.99 0.03 90 1017.4
20260503010001 23 107 0.0 3.2 0.00 0.99 0.03 90 1017.7
20260503005501 23 67 0.0 3.2 0.00 0.99 0.03 92 1017.4
20260503005001 23 0 0.0 0.0 0.00 0.99 0.03 94 1017.7
20260503004500 23 0 0.0 0.0 0.00 0.99 0.03 91 1017.8
20260503004000 23 0 0.0 0.0 0.00 0.99 0.03 89 1017.7
20260503003502 23 0 0.0 0.0 0.00 0.99 0.03 89 1017.8
20260503003001 23 0 0.0 0.0 0.00 0.99 0.03 89 1017.8
20260503002500 24 112 0.0 3.2 0.00 0.99 0.03 89 1018.0
20260503002001 23 112 0.0 3.2 0.00 0.99 0.03 89 1017.9
20260503001501 23 0 0.0 0.0 0.00 0.99 0.03 91 1017.9
20260503001000 23 0 0.0 0.0 0.00 0.99 0.03 90 1017.9
20260503000501 24 0 0.0 0.0 0.00 0.99 0.03 90 1018.0
20260503000022 23 0 0.0 0.0 0.00 0.99 0.03 91 1017.8
20260502235501 23 0 0.0 0.0 0.00 0.99 0.03 91 1017.8
20260502235001 23 157 0.0 3.2 0.00 0.99 0.03 90 1018.1
20260502234501 23 157 0.0 3.2 0.00 0.99 0.03 90 1017.9
20260502234022 23 67 0.0 3.2 0.00 0.99 0.03 91 1017.9
20260502233501 23 101 0.0 3.2 0.00 0.99 0.03 91 1018.2
20260502233001 23 123 0.0 3.2 0.00 0.99 0.03 91 1018.3
20260502232501 23 124 0.0 3.2 0.00 0.99 0.03 92 1018.1
20260502232001 23 135 0.0 3.2 0.00 0.99 0.03 92 1018.1
20260502231501 23 0 0.0 0.0 0.00 0.99 0.03 92 1017.9
20260502231001 23 0 0.0 0.0 0.00 0.99 0.03 91 1018.0
20260502230501 23 0 0.0 0.0 0.00 0.99 0.03 92 1018.0
20260502230022 22 0 0.0 0.0 0.00 0.99 0.03 93 1017.7
20260502225522 22 0 0.0 0.0 0.00 0.99 0.03 93 1017.8
20260502225001 22 0 0.0 0.0 0.00 0.99 0.03 93 1017.7
20260502224501 22 0 0.0 0.0 0.00 0.99 0.03 92 1017.7
20260502224001 22 135 0.0 3.2 0.00 0.99 0.03 92 1017.7
20260502223502 22 135 0.0 3.2 0.00 0.99 0.03 93 1017.4
20260502223002 22 0 0.0 0.0 0.00 0.99 0.03 93 1017.5
20260502222501 22 0 0.0 0.0 0.00 0.99 0.03 94 1017.6
20260502222001 22 0 0.0 0.0 0.00 0.99 0.03 94 1017.5
20260502221501 22 0 0.0 0.0 0.00 0.99 0.03 93 1017.4
20260502221001 22 0 0.0 0.0 0.00 0.99 0.03 94 1017.4
20260502220501 22 0 0.0 0.0 0.00 0.99 0.03 94 1017.3
20260502220001 22 0 0.0 0.0 0.00 0.99 0.03 95 1017.3
20260502215501 22 0 0.0 0.0 0.00 0.99 0.03 97 1016.8
20260502215001 21 0 0.0 0.0 0.00 0.99 0.03 97 1017.2
20260502214501 21 0 0.0 0.0 0.00 0.99 0.03 98 1016.9
20260502214002 21 0 0.0 0.0 0.00 0.99 0.03 99 1017.0
20260502213502 21 0 0.0 0.0 0.00 0.99 0.03 99 1016.9
20260502213002 21 0 0.0 0.0 0.00 0.99 0.03 99 1016.8
20260502212522 21 0 0.0 0.0 0.00 0.99 0.03 98 1016.8
20260502212001 21 0 0.0 0.0 0.00 0.99 0.03 97 1016.8
20260502211501 21 0 0.0 0.0 0.00 0.99 0.03 96 1016.7
20260502211022 21 0 0.0 0.0 0.00 0.99 0.03 96 1016.7
20260502210522 21 0 0.0 0.0 0.00 0.99 0.03 96 1016.4
20260502210022 21 0 0.0 0.0 0.00 0.99 0.03 96 1016.5
20260502205501 21 0 0.0 0.0 0.00 0.99 0.03 95 1016.6
20260502162001 20 0 0.0 0.0 0.00 0.97 0.00 97 1016.3
20260502161523 20 0 0.0 0.0 0.00 0.97 0.00 97 1016.6
20260502161002 20 0 0.0 0.0 0.00 0.97 0.00 97 1016.5
20260502151002 20 0 0.0 0.0 0.00 0.97 0.00 97 1017.2
20260502150502 20 0 0.0 0.0 0.00 0.97 0.00 97 1017.2
20260502123503 19 0 0.0 0.0 0.00 0.97 0.97 96 1017.9
20260502123003 20 0 0.0 0.0 0.00 0.97 0.97 97 1018.0
20260502122502 20 0 0.0 0.0 0.00 0.97 0.97 97 1017.9
20260502122002 19 0 0.0 0.0 0.00 0.97 0.97 97 1017.9
20260502121502 19 0 0.0 0.0 0.00 0.97 0.97 97 1018.0
20260502121002 19 0 0.0 0.0 0.00 0.97 0.97 96 1017.9
20260502120502 19 0 0.0 0.0 0.00 0.97 0.97 96 1018.0
20260502115502 18 0 0.0 0.0 0.00 0.97 0.97 97 1018.3
20260502113503 19 0 0.0 0.0 0.13 0.97 0.97 95 1018.1
20260502113003 19 0 0.0 0.0 0.13 0.97 0.97 95 1018.0
20260502112502 19 0 0.0 0.0 0.13 0.97 0.97 94 1018.0
20260502112002 20 0 0.0 0.0 0.13 0.97 0.97 93 1018.0
20260502111502 19 0 0.0 0.0 0.15 0.97 0.97 94 1018.0
20260502111002 19 0 0.0 0.0 0.18 0.97 0.97 94 1018.2
20260502110502 19 0 0.0 0.0 0.18 0.97 0.97 94 1018.1
20260502110002 19 0 0.0 0.0 0.20 0.97 0.97 94 1018.0
20260502105002 20 0 0.0 0.0 0.20 0.97 0.97 91 1017.9
20260502104502 20 0 0.0 0.0 0.23 0.97 0.97 91 1017.8
20260502104003 20 0 0.0 0.0 0.28 0.97 0.97 91 1018.0
20260502103502 20 0 0.0 0.0 0.15 0.84 0.84 91 1018.1
20260502103024 20 0 0.0 0.0 0.15 0.84 0.84 91 1018.1
20260502102523 20 0 0.0 0.0 0.18 0.84 0.84 92 1017.9
20260502102002 20 0 0.0 0.0 0.28 0.84 0.84 92 1018.1
20260502101502 20 0 0.0 0.0 0.30 0.81 0.84 92 1018.0
20260502101002 20 0 0.0 0.0 0.28 0.79 0.79 91 1017.9
20260502100524 20 0 0.0 0.0 0.28 0.79 0.79 91 1017.9
20260502091502 21 0 0.0 0.0 0.38 0.51 0.51 87 1017.1
20260502091003 21 0 0.0 0.0 0.46 0.51 0.51 87 1017.2
20260502090523 21 0 0.0 0.0 0.48 0.51 0.51 86 1017.1
20260502071503 23 0 0.0 0.0 0.00 0.00 0.00 76 1016.4
20260502071024 23 0 0.0 0.0 0.00 0.00 0.00 75 1016.2
20260502070503 24 0 0.0 0.0 0.00 0.00 0.00 73 1016.2
20260502070003 25 0 0.0 0.0 0.00 0.00 0.00 73 1016.2
20260502065503 25 0 0.0 0.0 0.00 0.00 0.00 72 1016.1
20260502065003 25 0 0.0 0.0 0.00 0.00 0.00 72 1016.1
20260502064503 25 0 0.0 0.0 0.00 0.00 0.00 71 1015.9
20260502064003 25 0 0.0 0.0 0.00 0.00 0.00 70 1016.0
20260502063503 25 90 0.0 3.2 0.00 0.00 0.00 70 1015.9
20260502063024 25 90 0.0 3.2 0.00 0.00 0.00 69 1015.9
20260502062503 25 0 0.0 0.0 0.00 0.00 0.00 69 1015.8
20260502062003 25 0 0.0 0.0 0.00 0.00 0.00 69 1015.6
20260502061503 25 0 0.0 0.0 0.00 0.00 0.00 68 1015.8
20260502061003 25 0 0.0 0.0 0.00 0.00 0.00 67 1015.6
20260502060503 25 90 0.0 3.2 0.00 0.00 0.00 67 1015.8
20260502060003 25 90 0.0 3.2 0.00 0.00 0.00 66 1015.8
20260502055503 25 0 0.0 0.0 0.00 0.00 0.00 67 1015.6
20260502055003 25 0 0.0 0.0 0.00 0.00 0.00 66 1015.9
20260502054503 25 0 0.0 0.0 0.00 0.00 0.00 67 1015.6
20260502054003 26 0 0.0 0.0 0.00 0.00 0.00 65 1015.7
20260502053504 26 0 0.0 0.0 0.00 0.00 0.00 66 1015.7
20260502053004 26 0 0.0 0.0 0.00 0.00 0.00 65 1015.7
20260502052503 26 0 0.0 0.0 0.00 0.00 0.00 64 1015.9
20260502052003 26 0 0.0 0.0 0.00 0.00 0.00 64 1015.6
20260502051503 26 0 0.0 0.0 0.00 0.00 0.00 64 1015.7
20260502051003 26 0 0.0 0.0 0.00 0.00 0.00 64 1015.9
20260502050503 26 0 0.0 0.0 0.00 0.00 0.00 66 1015.5
20260502050003 26 0 0.0 0.0 0.00 0.00 0.00 64 1015.9
20260502045503 26 0 0.0 0.0 0.00 0.00 0.00 64 1015.7
20260502044518 26 0 0.0 0.0 0.00 0.00 0.00 65 1015.9
20260502044004 26 112 0.0 3.2 0.00 0.00 0.00 65 1016.1
20260502043504 26 98 0.0 3.2 0.00 0.00 0.00 64 1016.0
20260502043004 26 90 0.0 3.2 0.00 0.00 0.00 66 1016.1
20260502042503 26 0 0.0 0.0 0.00 0.00 0.00 66 1016.3
20260502042003 26 0 0.0 0.0 0.00 0.00 0.00 67 1016.1
20260502041503 26 0 0.0 0.0 0.00 0.00 0.00 66 1016.1
20260502041003 26 0 0.0 0.0 0.00 0.00 0.00 65 1016.0
20260502040506 26 0 0.0 0.0 0.00 0.00 0.00 67 1016.4
20260502040024 26 0 0.0 0.0 0.00 0.00 0.00 67 1016.3
20260502035503 26 89 0.0 3.2 0.00 0.00 0.00 66 1016.2
20260502035024 26 94 0.0 3.2 0.00 0.00 0.00 66 1016.3
20260502034503 26 112 0.0 3.2 0.00 0.00 0.00 63 1016.2
20260502034003 26 112 0.0 3.2 0.00 0.00 0.00 66 1016.3
20260502033524 26 0 0.0 0.0 0.00 0.00 0.00 65 1016.4
20260502033004 26 90 0.0 3.2 0.00 0.00 0.00 65 1016.6
20260502032503 26 76 0.0 3.2 0.00 0.00 0.00 67 1016.5
20260502032003 26 45 0.0 3.2 0.00 0.00 0.00 67 1016.6
20260502031524 26 45 0.0 3.2 0.00 0.00 0.00 66 1016.8
20260502031003 26 0 0.0 0.0 0.00 0.00 0.00 69 1016.7
20260502030524 26 0 0.0 0.0 0.00 0.00 0.00 67 1016.9
20260502030003 26 90 0.0 3.2 0.00 0.00 0.00 69 1016.8
20260502025503 26 90 0.0 3.2 0.00 0.00 0.00 67 1016.9
20260502025003 26 0 0.0 0.0 0.00 0.00 0.00 67 1017.1
20260502024503 26 0 0.0 0.0 0.00 0.00 0.00 69 1017.1
20260502024003 26 0 0.0 0.0 0.00 0.00 0.00 66 1016.9
20260502023504 26 0 0.0 0.0 0.00 0.00 0.00 69 1017.2
20260502023003 27 0 0.0 0.0 0.00 0.00 0.00 68 1017.3
20260502022503 26 0 0.0 0.0 0.00 0.00 0.00 70 1017.4